Location: Munkebjergskolens Observatorium
(55.3864°N, 10.3987°E)
Time: 04:30:41
(UTC+02:00)

QB50P2 - Pass Details

Date: 05 April 2023
Orbit: 581 x 596 km, 98.0° (Epoch: 31 May)

Event Time Altitude Azimuth Distance (km) Brightness Sun altitude
Rises 02:18:13 0° 23° (NNE) 2,837 ? -27.6°
Reaches altitude 10° 02:20:45 10° 38° (NE) 1,927 ? -27.5°
Enters shadow 02:23:50 23° 85° (E) 1,261 ? -27.4°
